Regional Weather Roundup
Issued by NWS New Orleans/Baton Rouge, LA

Home | Current Version | Previous Version | Text Only | Print | Product List | Glossary On
Versions: 1 2 3 4 5 6 7 8 9 10 11 12 13 14 15 16 17 18 19 20 21 22 23 24 25 26 27 28
000
ASUS44 KLIX 230913
RWRLIX
NEW ORLEANS REGIONAL WEATHER ROUNDUP
NATIONAL WEATHER SERVICE NEW ORLEANS LA
400 AM CDT SUN JUL 23 2017

NOTE: "FAIR" INDICATES FEW OR NO CLOUDS BELOW 12,000 FEET WITH NO
      SIGNIFICANT WEATHER AND/OR OBSTRUCTIONS TO VISIBILITY.
      SKY/WX - SKY CONDITION AND SIGNIFICANT WEATHER.
      TMP - AIR TEMPERATURE.     DP    - DEWPOINT TEMPERATURE.
      RH  - RELATIVE HUMIDITY.   PRES  - PRESSURE.
      HI  - HEAT INDEX.          WCI   - WIND CHILL INDEX.

*  THESE STATIONS ARE NOT NWS OR FAA STATIONS AND ARE NOT UNDER
   NWS QUALITY CONTROL.

LAZ038-040-048-061>063-065>067-069-231000-
SOUTHEAST LOUISIANA

CITY           SKY/WX    TMP DP  RH WIND       PRES   REMARKS
N.O. INTL ARPT PTCLDY    76  74  93 SW6       29.96F
N.O. LAKEFRONT MOCLDY    80  75  84 W9        29.97S
N.O. DOWNTOWN*   N/A     78  74  87 CALM        N/A
RESERVE*         N/A     77  74  88 W3        29.96S
SLIDELL        MOCLDY    75  73  93 CALM      29.96S
BATON ROUGE    CLEAR     74  72  93 CALM      29.96S
BOOTHVILLE     NOT AVBL
BELLE CHASSE   NOT AVBL
BOGALUSA*        N/A     73  70  89 CALM      29.98S
GALLIANO*      MOSUNNY   74  72  92 CALM      29.97S
NEW ROADS*       N/A     73  73 100 CALM      29.96S
GONZALES*        N/A     75  74  97 CALM      29.96S
HAMMOND*       CLEAR     72  70  94 CALM      29.96S
HOUMA*         NOT AVBL
PORT FOURCHON* MOSUNNY   82  73  74 SW7       29.97R

$$

MSZ070-080>082-231000-
SOUTHERN MISSISSIPPI

CITY           SKY/WX    TMP DP  RH WIND       PRES   REMARKS
MCCOMB         MOCLDY    73  71  93 CALM      29.97R
GULFPORT       CLEAR     75  74  96 NW3       29.95F
BILOXI         PTCLDY    76  74  91 CALM      29.95S
PASCAGOULA     CLEAR     74  72  93 CALM      29.96R

$$

COASTAL OBSERVATIONS
LAKE AND NEARSHORE STATIONS

STATION/POSITION TIME  TEMP    WIND        PRES    WAVE
                       AIR SEA DIR/SP/G            HT/PER
                 (UTC) (F)     (DEG/KT/KT) (MB)    (FT/S)
PASCAGOULA       0836   78     340/  5/  7 1013.7
WAVELAND YACHT   0842   77 88  290/  3/  4 1014.5
GRAND ISLE       0842   81 86  250/  6/  8 1014.9
SOUTHWEST PASS   0842   83     230/ 13/ 18   N/A
NEW CANAL        0842   79 84  230/  2/  3 1014.5
SHELL BEACH      0842   79 90  250/  7/  9 1014.7

OFFSHORE STATIONS

STATION/POSITION TIME  TEMP    WIND        PRES    WAVE
                       AIR SEA DIR/SP/G            HT/PER
                 (UTC) (F)     (DEG/KT/KT) (MB)    (FT/S)
64 S DAUPHIN ISL 0850   84 86  250/ 14/ 16 1014.6    2/ 4

$$





USA.gov is the U.S. government's official web portal to all federal, state and local government web resources and services.